Back to catalog

HULIANWANG DIGUI-135

AliveCommunicationsLEO
NORAD 67243·PAYLOAD·🇨🇳 China

Launched Dec 25, 2025 from Wenchang Space Launch Site

Loading…

Next Passes (next 24 hours)

TLE

FreshSource: Space-Track

Epoch: Sep 14, 2026, 09:35 UTC

1 67243U 25311H   26257.39986473 -.00000075  00000-0  10468-3 0  9990
2 67243  50.0012 155.9179 0000258 304.2702  55.8146 13.29326710 35205

Track HULIANWANG DIGUI-135 in real time with AllMySat

Download on the App Store